TimeCST,TemperatureF,Dew PointF,Humidity,Sea Level PressureIn,VisibilityMPH,Wind Direction,Wind SpeedMPH,Gust SpeedMPH,PrecipitationIn,Events,Conditions,WindDirDegrees,DateUTC
12:40 AM,75.2,69.8,83,29.97,10.0,Calm,Calm,-,N/A,,Scattered Clouds,0,2013-03-05 06:40:00
1:40 AM,75.2,69.8,83,29.95,10.0,Calm,Calm,-,N/A,,Scattered Clouds,0,2013-03-05 07:40:00
2:40 AM,75.2,69.8,83,29.89,10.0,Calm,Calm,-,N/A,,Scattered Clouds,0,2013-03-05 08:40:00
3:40 AM,75.2,66.2,73,29.94,10.0,Calm,Calm,-,N/A,,Scattered Clouds,0,2013-03-05 09:40:00
4:40 AM,75.2,66.2,73,29.94,10.0,North,11.5,-,N/A,,Scattered Clouds,350,2013-03-05 10:40:00
5:50 AM,73.4,66.2,78,29.89,10.0,North,5.8,-,N/A,,Scattered Clouds,350,2013-03-05 11:50:00
6:40 AM,73.4,64.4,73,29.97,10.0,North,5.8,-,N/A,,Scattered Clouds,350,2013-03-05 12:40:00
7:40 AM,73.4,64.4,73,29.97,10.0,Calm,Calm,-,N/A,,Scattered Clouds,0,2013-03-05 13:40:00
8:40 AM,77.0,64.4,65,29.89,10.0,Calm,Calm,-,N/A,,Scattered Clouds,0,2013-03-05 14:40:00
9:40 AM,77.0,64.4,65,30.00,10.0,Calm,Calm,-,N/A,,Scattered Clouds,0,2013-03-05 15:40:00
10:50 AM,84.2,62.6,48,29.99,10.0,Calm,Calm,-,N/A,,Scattered Clouds,0,2013-03-05 16:50:00
11:50 AM,86.0,62.6,45,29.93,10.0,West,11.5,-,N/A,,Mostly Cloudy,270,2013-03-05 17:50:00
12:40 PM,86.0,62.6,45,29.94,10.0,WSW,11.5,-,N/A,,Mostly Cloudy,250,2013-03-05 18:40:00
1:40 PM,86.0,62.6,45,29.92,10.0,WSW,11.5,-,N/A,,Mostly Cloudy,250,2013-03-05 19:40:00
2:40 PM,82.4,64.4,54,29.88,10.0,WSW,17.3,-,N/A,,Mostly Cloudy,250,2013-03-05 20:40:00
3:40 PM,82.4,64.4,54,29.89,10.0,WSW,17.3,-,N/A,,Mostly Cloudy,250,2013-03-05 21:40:00
4:40 PM,82.4,64.4,54,29.89,10.0,West,11.5,-,N/A,,Mostly Cloudy,270,2013-03-05 22:40:00
5:42 PM,80.6,66.2,61,29.95,10.0,Calm,Calm,-,N/A,,Mostly Cloudy,0,2013-03-05 23:42:00
6:40 PM,80.6,66.2,61,29.91,10.0,Calm,Calm,-,N/A,,Mostly Cloudy,0,2013-03-06 00:40:00
7:40 PM,78.8,66.2,65,29.92,10.0,Calm,Calm,-,N/A,,Mostly Cloudy,0,2013-03-06 01:40:00
8:42 PM,78.8,66.2,65,29.88,10.0,Calm,Calm,-,N/A,,Mostly Cloudy,0,2013-03-06 02:42:00
9:40 PM,77.0,66.2,69,29.95,10.0,Calm,Calm,-,N/A,,Mostly Cloudy,0,2013-03-06 03:40:00
10:40 PM,77.0,66.2,69,29.95,10.0,Calm,Calm,-,N/A,,Mostly Cloudy,0,2013-03-06 04:40:00
11:40 PM,77.0,66.2,69,29.92,10.0,Calm,Calm,-,N/A,,Mostly Cloudy,0,2013-03-06 05:40:00